Home > Weather > Port Said > Past weeks

Flag for Egypt Past Weather in Port Said, Egypt — Yesterday and Last 2 Weeks

Now
81 °F

Clear.


Feels Like: 86 °F
Forecast: 79 / 85 °F
Wind: 10 mph from Northwest

Location: Port Said Airport

Current Time: Jul 26, 2016 at 11:54:26 PM

Latest Report: Jul 26, 2016 at 11:00 PM


Visibility: 10 mi

Pressure: 29.74 "Hg

Humidity: 84%

Dew Point: 75 °F

Location of Port SaidLocation

Past Weather in Port Said — Graph

°F

Port Said Temperature Yesterday

Maximum temperature yesterday: 88 °F (at 11:00 AM)
Minimum temperature yesterday: 77 °F (at 4:00 AM)
Average temperature yesterday: 82 °F

High & Low Weather Summary for the Past Weeks

 TemperatureHumidityPressure
High90 °F (Jul 14, 1:00 PM)100% (Jul 20, 9:00 AM)29.92 "Hg (Jul 20, 9:00 AM)
Low75 °F (Jul 18, 6:00 AM)49% (Jul 15, 12:00 PM)29.65 "Hg (Jul 19, 3:00 PM)
Average82 °F73%29.77 "Hg
* Reported Jul 11 10:00 PM — Jul 26 10:00 PM, Port Said, Weather by CustomWeather, © 2016

Note: Actual official high and low records may vary slightly from our data, if they occured in-between our weather recording intervals... More about our weather records

Advertising

Port Said Weather History for the Previous 24 Hours

Scroll right to see more
 ConditionsComfort  
Time TempWeatherWind HumidityBarometerVisibility
10:00 PM
Tue, Jul 26
81 °FClear.9 mph84%29.77 "Hg10 mi
9:00 PM81 °FClear.10 mph84%29.74 "Hg10 mi
8:00 PM81 °FClear.13 mph84%29.74 "Hg10 mi
7:00 PM82 °FClear.15 mph79%29.74 "Hg10 mi
6:00 PM84 °FSunny.17 mph74%29.71 "Hg10 mi
5:00 PM86 °FSunny.15 mph75%29.71 "Hg10 mi
4:00 PM86 °FSunny.14 mph75%29.71 "Hg10 mi
3:00 PM88 °FSunny.12 mph75%29.71 "Hg10 mi
2:00 PM88 °FSunny.12 mph75%29.74 "Hg10 mi
1:00 PM88 °FSunny.7 mph70%29.74 "Hg10 mi
12:00 PM88 °FSunny.6 mph70%29.74 "Hg10 mi
11:00 AM86 °FSunny.7 mph66%29.74 "Hg10 mi
10:40 AM82 °FSunny.9 mph79%29.74 "Hg10 mi
10:00 AM82 °FSunny.9 mph79%29.74 "Hg10 mi
9:00 AM81 °FSunny.9 mph84%29.74 "Hg10 mi
8:00 AM81 °FSunny.12 mph84%29.74 "Hg10 mi
7:00 AM79 °FSunny.10 mph89%29.74 "Hg10 mi
6:00 AM79 °FPassing clouds.9 mph84%29.74 "HgN/A
5:00 AM79 °FClear.13 mph84%29.71 "Hg10 mi
4:00 AM79 °FClear.8 mph84%29.71 "Hg10 mi
3:00 AM81 °FClear.9 mph79%29.71 "Hg10 mi
2:00 AM81 °FClear.12 mph79%29.71 "Hg10 mi
1:00 AM81 °FClear.6 mph79%29.71 "Hg10 mi
12:00 AM81 °FClear.9 mph79%29.71 "Hg10 mi
11:00 PM
Mon, Jul 25
81 °FClear.14 mph79%29.71 "Hg10 mi
Weather by CustomWeather, © 2016

See weather overviewHow to use our weather pages